,,,PA_Meas_PMT16A,,PR_Meas_QMR101_102,,RH_Meas_QMH101,,SR_Meas_QMS101,,TA_Meas_QMH101,,GenWind,,GenWind,
date,time,status,PA,status,PR,status,RH,status,SR,status,TA,status,DirAvg,status,SpdAvg,
2010-06-04, 00:00:04,VALID,1002.51,VALID,0,VALID,92.6846,VALID,0,VALID,24.2263,VALID,63,VALID,0.520312,
2010-06-04, 00:01:04,VALID,1002.51,VALID,0,VALID,92.6846,VALID,0,VALID,24.2067,VALID,63,VALID,0.244141,
2010-06-04, 00:02:04,VALID,1002.53,VALID,0,VALID,92.677,VALID,0,VALID,24.1872,VALID,63,VALID,0.402734,
2010-06-04, 00:03:04,VALID,1002.53,VALID,0,VALID,92.7304,VALID,0,VALID,24.1872,VALID,63,VALID,0.451562,
2010-06-04, 00:04:04,VALID,1002.53,VALID,0,VALID,92.8067,VALID,0,VALID,24.1677,VALID,63,VALID,0.550781,
2010-06-04, 00:05:04,VALID,1002.52,VALID,0,VALID,92.8296,VALID,0,VALID,24.2086,VALID,82,VALID,0.694141,
2010-06-04, 00:06:04,VALID,1002.51,VALID,0,VALID,92.8448,VALID,0,VALID,24.1872,VALID,82,VALID,0.641406,
2010-06-04, 00:07:04,VALID,1002.52,VALID,0,VALID,92.8601,VALID,0,VALID,24.2067,VALID,82,VALID,0.651953,
2010-06-04, 00:08:04,VALID,1002.49,VALID,0,VALID,92.9135,VALID,0,VALID,24.2067,VALID,82,VALID,0.583594,
2010-06-04, 00:09:04,VALID,1002.47,VALID,0,VALID,92.9517,VALID,0,VALID,24.2263,VALID,82,VALID,0.690625,
2010-06-04, 00:10:04,VALID,1002.47,VALID,0,VALID,92.9974,VALID,0,VALID,24.2067,VALID,84,VALID,0.712891,
2010-06-04, 00:11:04,VALID,1002.51,VALID,0,VALID,93.0203,VALID,0,VALID,24.2458,VALID,84,VALID,0.93125,
2010-06-04, 00:12:04,VALID,1002.49,VALID,0,VALID,93.0508,VALID,0,VALID,24.2458,VALID,84,VALID,0.849219,
2010-06-04, 00:13:04,VALID,1002.51,VALID,0,VALID,93.0585,VALID,0,VALID,24.2263,VALID,86,VALID,0.951953,
2010-06-04, 00:14:04,VALID,1002.49,VALID,0,VALID,93.0966,VALID,0,VALID,24.2458,VALID,91,VALID,0.998828,
2010-06-04, 00:15:04,VALID,1002.5,VALID,0,VALID,93.1271,VALID,0,VALID,24.2653,VALID,105,VALID,1.11094,
2010-06-04, 00:16:04,VALID,1002.49,VALID,0,VALID,93.1653,VALID,0,VALID,24.2653,VALID,109,VALID,0.654297,
2010-06-04, 00:17:04,VALID,1002.48,VALID,0,VALID,93.1577,VALID,0,VALID,24.2653,VALID,109,VALID,0.542969,
2010-06-04, 00:18:04,VALID,1002.47,VALID,0,VALID,93.1653,VALID,0,VALID,24.2671,VALID,109,VALID,0.0507813,
2010-06-04, 00:19:04,VALID,1002.44,VALID,0,VALID,93.1882,VALID,0,VALID,24.2885,VALID,109,VALID,0.136328,
2010-06-04, 00:20:04,VALID,1002.43,VALID,0,VALID,93.2111,VALID,0,VALID,24.2671,VALID,109,VALID,0,
2010-06-04, 00:21:04,VALID,1002.41,VALID,0,VALID,93.2034,VALID,0,VALID,24.2866,VALID,109,VALID,0,
2010-06-04, 00:22:04,VALID,1002.4,VALID,0,VALID,93.234,VALID,0,VALID,24.2671,VALID,109,VALID,0.0433594,
2010-06-04, 00:23:04,VALID,1002.37,VALID,0,VALID,93.2645,VALID,0,VALID,24.2866,VALID,109,VALID,0.0515625,
2010-06-04, 00:24:04,VALID,1002.37,VALID,0,VALID,93.295,VALID,0,VALID,24.2671,VALID,109,VALID,0.234766,
2010-06-04, 00:25:04,VALID,1002.36,VALID,0,VALID,93.3026,VALID,0,VALID,24.2866,VALID,109,VALID,0.361328,
2010-06-04, 00:26:04,VALID,1002.38,VALID,0,VALID,93.3179,VALID,0,VALID,24.2866,VALID,109,VALID,0.485938,
2010-06-04, 00:27:04,VALID,1002.39,VALID,0,VALID,93.3026,VALID,0,VALID,24.2866,VALID,109,VALID,0.584375,
2010-06-04, 00:28:04,VALID,1002.39,VALID,0,VALID,93.3331,VALID,0,VALID,24.2671,VALID,52,VALID,0.725,
2010-06-04, 00:29:04,VALID,1002.42,VALID,0,VALID,93.3331,VALID,0,VALID,24.2476,VALID,34,VALID,0.839844,
2010-06-04, 00:30:04,VALID,1002.45,VALID,0,VALID,93.3026,VALID,0,VALID,24.269,VALID,34,VALID,0.908203,
2010-06-04, 00:31:04,VALID,1002.47,VALID,0,VALID,93.2645,VALID,0,VALID,24.2495,VALID,34,VALID,1.08359,
2010-06-04, 00:32:04,VALID,1002.48,VALID,0,VALID,93.234,VALID,0,VALID,24.2299,VALID,34,VALID,1.07461,
2010-06-04, 00:33:04,VALID,1002.48,VALID,0,VALID,93.2492,VALID,0,VALID,24.2067,VALID,34,VALID,0.865234,
2010-06-04, 00:34:04,VALID,1002.49,VALID,0,VALID,93.2721,VALID,0,VALID,24.2067,VALID,34,VALID,0.710156,
2010-06-04, 00:35:04,VALID,1002.48,VALID,0,VALID,93.2416,VALID,0,VALID,24.1872,VALID,34,VALID,0.623438,
2010-06-04, 00:36:04,VALID,1002.44,VALID,0,VALID,93.2416,VALID,0,VALID,24.1872,VALID,34,VALID,0.475391,
2010-06-04, 00:37:04,VALID,1002.43,VALID,0,VALID,93.234,VALID,0,VALID,24.2086,VALID,34,VALID,0.516406,
2010-06-04, 00:38:04,VALID,1002.4,VALID,0,VALID,93.2568,VALID,0,VALID,24.1872,VALID,34,VALID,0.479688,
2010-06-04, 00:39:04,VALID,1002.34,VALID,0,VALID,93.2492,VALID,0,VALID,24.2086,VALID,34,VALID,0.497656,
2010-06-04, 00:40:04,VALID,1002.34,VALID,0,VALID,93.2645,VALID,0,VALID,24.2086,VALID,34,VALID,0.402734,
2010-06-04, 00:41:04,VALID,1002.31,VALID,0,VALID,93.2645,VALID,0,VALID,24.1872,VALID,34,VALID,0.349219,
2010-06-04, 00:42:04,VALID,1002.31,VALID,0,VALID,93.295,VALID,0,VALID,24.2086,VALID,34,VALID,0.305859,
2010-06-04, 00:43:04,VALID,1002.28,VALID,0,VALID,93.2797,VALID,0,VALID,24.1872,VALID,34,VALID,0.450391,
2010-06-04, 00:44:04,VALID,1002.27,VALID,0,VALID,93.2645,VALID,0,VALID,24.1677,VALID,34,VALID,0.564844,
2010-06-04, 00:45:04,VALID,1002.31,VALID,0,VALID,93.2263,VALID,0,VALID,24.1677,VALID,34,VALID,0.591797,
2010-06-04, 00:46:04,VALID,1002.33,VALID,0,VALID,93.2034,VALID,0,VALID,24.1872,VALID,34,VALID,0.392188,
2010-06-04, 00:47:04,VALID,1002.34,VALID,0,VALID,93.1882,VALID,0,VALID,24.1891,VALID,34,VALID,0.457422,
2010-06-04, 00:48:04,VALID,1002.34,VALID,0,VALID,93.1805,VALID,0,VALID,24.1872,VALID,34,VALID,0.305859,
2010-06-04, 00:49:04,VALID,1002.35,VALID,0,VALID,93.2111,VALID,0,VALID,24.1872,VALID,34,VALID,0.274219,
2010-06-04, 00:50:04,VALID,1002.34,VALID,0,VALID,93.2034,VALID,0,VALID,24.2067,VALID,34,VALID,0.00195313,
2010-06-04, 00:51:04,VALID,1002.3,VALID,0,VALID,93.2492,VALID,0,VALID,24.1872,VALID,34,VALID,0,
2010-06-04, 00:52:04,VALID,1002.32,VALID,0,VALID,93.2416,VALID,0,VALID,24.1677,VALID,34,VALID,0,
2010-06-04, 00:53:04,VALID,1002.25,VALID,0,VALID,93.2492,VALID,0,VALID,24.1872,VALID,34,VALID,0,
2010-06-04, 00:54:04,VALID,1002.23,VALID,0,VALID,93.2568,VALID,0,VALID,24.1482,VALID,34,VALID,0,
2010-06-04, 00:55:04,VALID,1002.23,VALID,0,VALID,93.2797,VALID,0,VALID,24.1482,VALID,34,VALID,0,
2010-06-04, 00:56:04,VALID,1002.19,VALID,0,VALID,93.2874,VALID,0,VALID,24.1696,VALID,34,VALID,0,
2010-06-04, 00:57:04,VALID,1002.19,VALID,0,VALID,93.3103,VALID,0,VALID,24.2086,VALID,34,VALID,0,
2010-06-04, 00:58:04,VALID,1002.15,VALID,0,VALID,93.356,VALID,0,VALID,24.1872,VALID,34,VALID,0.0253906,
2010-06-04, 00:59:04,VALID,1002.13,VALID,0,VALID,93.356,VALID,0,VALID,24.1872,VALID,34,VALID,0.175,
2010-06-04, 01:00:04,VALID,1002.11,VALID,0,VALID,93.4018,VALID,0,VALID,24.2263,VALID,34,VALID,0.464844,
2010-06-04, 01:01:04,VALID,1002.1,VALID,0,VALID,93.3866,VALID,0,VALID,24.2067,VALID,34,VALID,0.428516,
2010-06-04, 01:02:04,VALID,1002.09,VALID,0,VALID,93.4171,VALID,0,VALID,24.2263,VALID,34,VALID,0.466016,
2010-06-04, 01:03:04,VALID,1002.09,VALID,0,VALID,93.3866,VALID,0,VALID,24.2281,VALID,291,VALID,0.484375,
2010-06-04, 01:04:04,VALID,1002.07,VALID,0,VALID,93.4094,VALID,0,VALID,24.2281,VALID,291,VALID,0.315234,
2010-06-04, 01:05:04,VALID,1002.08,VALID,0,VALID,93.4171,VALID,0,VALID,24.2281,VALID,291,VALID,0.208203,
2010-06-04, 01:06:04,VALID,1002.06,VALID,0,VALID,93.4171,VALID,0,VALID,24.2476,VALID,291,VALID,0.00507812,
2010-06-04, 01:07:04,VALID,1002.09,VALID,0,VALID,93.4171,VALID,0,VALID,24.2281,VALID,291,VALID,0.0519531,
2010-06-04, 01:08:04,VALID,1002.07,VALID,0,VALID,93.4323,VALID,0,VALID,24.2281,VALID,291,VALID,0,
2010-06-04, 01:09:04,VALID,1002.08,VALID,0,VALID,93.4247,VALID,0,VALID,24.2281,VALID,291,VALID,0,
2010-06-04, 01:10:04,VALID,1002.07,VALID,0,VALID,93.4323,VALID,0,VALID,24.2086,VALID,291,VALID,0,
2010-06-04, 01:11:04,VALID,1002.07,VALID,0,VALID,93.44,VALID,0,VALID,24.2086,VALID,291,VALID,0,
2010-06-04, 01:12:04,VALID,1002.08,VALID,0,VALID,93.4628,VALID,0,VALID,24.2086,VALID,291,VALID,0,
2010-06-04, 01:13:04,VALID,1002.1,VALID,0,VALID,93.4857,VALID,0,VALID,24.2299,VALID,291,VALID,0.233594,
2010-06-04, 01:14:04,VALID,1002.08,VALID,0,VALID,93.4857,VALID,0,VALID,24.1891,VALID,291,VALID,0.341406,
2010-06-04, 01:15:04,VALID,1002.06,VALID,0,VALID,93.4857,VALID,0,VALID,24.1891,VALID,291,VALID,0.415234,
2010-06-04, 01:16:04,VALID,1002.04,VALID,0,VALID,93.5163,VALID,0,VALID,24.2086,VALID,291,VALID,0.476953,
2010-06-04, 01:17:04,VALID,1002.05,VALID,0,VALID,93.5163,VALID,0,VALID,24.1891,VALID,291,VALID,0.503125,
2010-06-04, 01:18:04,VALID,1002.04,VALID,0,VALID,93.5239,VALID,0,VALID,24.1872,VALID,291,VALID,0.513672,
2010-06-04, 01:19:04,VALID,1002.03,VALID,0,VALID,93.5239,VALID,0,VALID,24.1872,VALID,291,VALID,0.543359,
2010-06-04, 01:20:04,VALID,1001.99,VALID,0,VALID,93.5239,VALID,0,VALID,24.1677,VALID,291,VALID,0.537891,
2010-06-04, 01:21:04,VALID,1001.97,VALID,0,VALID,93.5239,VALID,0,VALID,24.1677,VALID,291,VALID,0.519531,
2010-06-04, 01:22:04,VALID,1001.98,VALID,0,VALID,93.5163,VALID,0,VALID,24.1677,VALID,291,VALID,0.358594,
2010-06-04, 01:23:04,VALID,1001.96,VALID,0,VALID,93.5315,VALID,0,VALID,24.1287,VALID,291,VALID,0.291016,
2010-06-04, 01:24:04,VALID,1001.99,VALID,0,VALID,93.5468,VALID,0,VALID,24.1287,VALID,291,VALID,0.102344,
2010-06-04, 01:25:04,VALID,1001.98,VALID,0,VALID,93.5239,VALID,0,VALID,24.1482,VALID,291,VALID,0,
2010-06-04, 01:26:04,VALID,1001.97,VALID,0,VALID,93.5315,VALID,0,VALID,24.1287,VALID,291,VALID,0,
2010-06-04, 01:27:04,VALID,1001.98,VALID,0,VALID,93.5544,VALID,0,VALID,24.1287,VALID,291,VALID,0,
2010-06-04, 01:28:04,VALID,1001.93,VALID,0,VALID,93.5849,VALID,0,VALID,24.1287,VALID,291,VALID,0,
2010-06-04, 01:29:04,VALID,1001.91,VALID,0,VALID,93.5697,VALID,0,VALID,24.1287,VALID,291,VALID,0,
2010-06-04, 01:30:04,VALID,1001.89,VALID,0,VALID,93.562,VALID,0,VALID,24.1092,VALID,291,VALID,0,
2010-06-04, 01:31:04,VALID,1001.87,VALID,0,VALID,93.5697,VALID,0,VALID,24.1092,VALID,291,VALID,0.225391,
2010-06-04, 01:32:04,VALID,1001.86,VALID,0,VALID,93.5926,VALID,0,VALID,24.0897,VALID,291,VALID,0.249219,
2010-06-04, 01:33:04,VALID,1001.85,VALID,0,VALID,93.6002,VALID,0,VALID,24.1092,VALID,178,VALID,0.557422,
2010-06-04, 01:34:05,VALID,1001.86,VALID,0,VALID,93.5926,VALID,0,VALID,24.1092,VALID,156,VALID,0.671094,
2010-06-04, 01:35:05,VALID,1001.82,VALID,0,VALID,93.6078,VALID,0,VALID,24.1287,VALID,146,VALID,0.71875,
2010-06-04, 01:36:05,VALID,1001.79,VALID,0,VALID,93.6231,VALID,0,VALID,24.1287,VALID,146,VALID,0.849219,
2010-06-04, 01:37:05,VALID,1001.74,VALID,0,VALID,93.6078,VALID,0,VALID,24.1287,VALID,142,VALID,0.886719,
2010-06-04, 01:38:05,VALID,1001.71,VALID,0,VALID,93.6154,VALID,0,VALID,24.1482,VALID,138,VALID,0.907812,
2010-06-04, 01:39:05,VALID,1001.67,VALID,0,VALID,93.5926,VALID,0,VALID,24.15,VALID,138,VALID,0.835156,
2010-06-04, 01:40:05,VALID,1001.61,VALID,0,VALID,93.5849,VALID,0,VALID,24.1482,VALID,138,VALID,0.726172,
2010-06-04, 01:41:05,VALID,1001.59,VALID,0,VALID,93.5926,VALID,0,VALID,24.1482,VALID,137,VALID,0.735547,
2010-06-04, 01:42:05,VALID,1001.58,VALID,0,VALID,93.5773,VALID,0,VALID,24.1287,VALID,119,VALID,0.478906,
2010-06-04, 01:43:05,VALID,1001.57,VALID,0,VALID,93.5773,VALID,0,VALID,24.1482,VALID,119,VALID,0.597656,
2010-06-04, 01:44:05,VALID,1001.56,VALID,0,VALID,93.5697,VALID,0,VALID,24.1287,VALID,119,VALID,0.474219,
2010-06-04, 01:45:05,VALID,1001.55,VALID,0,VALID,93.5773,VALID,0,VALID,24.1287,VALID,119,VALID,0.560547,
2010-06-04, 01:46:05,VALID,1001.59,VALID,0,VALID,93.5849,VALID,0,VALID,24.1482,VALID,119,VALID,0.704687,
2010-06-04, 01:47:05,VALID,1001.58,VALID,0,VALID,93.5849,VALID,0,VALID,24.1287,VALID,119,VALID,0.704297,
2010-06-04, 01:48:05,VALID,1001.59,VALID,0,VALID,93.5773,VALID,0,VALID,24.1519,VALID,119,VALID,0.386719,
2010-06-04, 01:49:05,VALID,1001.61,VALID,0,VALID,93.5773,VALID,0,VALID,24.111,VALID,119,VALID,0.361328,
2010-06-04, 01:50:05,VALID,1001.62,VALID,0,VALID,93.5849,VALID,0,VALID,24.111,VALID,120,VALID,0.677734,
2010-06-04, 01:51:05,VALID,1001.61,VALID,0,VALID,93.5773,VALID,0,VALID,24.1324,VALID,120,VALID,0.898047,
2010-06-04, 01:52:05,VALID,1001.61,VALID,0,VALID,93.6231,VALID,0,VALID,24.111,VALID,120,VALID,0.707812,
2010-06-04, 01:53:05,VALID,1001.63,VALID,0,VALID,93.6078,VALID,0,VALID,24.1305,VALID,120,VALID,0.540234,
2010-06-04, 01:54:05,VALID,1001.65,VALID,0,VALID,93.6154,VALID,0,VALID,24.111,VALID,125,VALID,0.748828,
2010-06-04, 01:55:05,VALID,1001.65,VALID,0,VALID,93.6078,VALID,0,VALID,24.0915,VALID,129,VALID,0.827344,
2010-06-04, 01:56:05,VALID,1001.65,VALID,0,VALID,93.6383,VALID,0,VALID,24.1305,VALID,132,VALID,0.877734,
2010-06-04, 01:57:05,VALID,1001.63,VALID,0,VALID,93.6231,VALID,0,VALID,24.1305,VALID,131,VALID,0.872266,
2010-06-04, 01:58:05,VALID,1001.64,VALID,0,VALID,93.6307,VALID,0,VALID,24.111,VALID,135,VALID,1.01914,
2010-06-04, 01:59:05,VALID,1001.59,VALID,0,VALID,93.646,VALID,0,VALID,24.111,VALID,133,VALID,1.25508,
2010-06-04, 02:00:05,VALID,1001.6,VALID,0,VALID,93.6307,VALID,0,VALID,24.111,VALID,135,VALID,1.09883,
2010-06-04, 02:01:05,VALID,1001.59,VALID,0,VALID,93.6231,VALID,0,VALID,24.1305,VALID,135,VALID,0.828125,
2010-06-04, 02:02:05,VALID,1001.59,VALID,0,VALID,93.6002,VALID,0,VALID,24.111,VALID,128,VALID,1.11953,
2010-06-04, 02:03:05,VALID,1001.6,VALID,0,VALID,93.5773,VALID,0,VALID,24.1324,VALID,127,VALID,0.664844,
2010-06-04, 02:04:05,VALID,1001.6,VALID,0,VALID,93.5391,VALID,0,VALID,24.111,VALID,114,VALID,0.853125,
2010-06-04, 02:05:05,VALID,1001.62,VALID,0,VALID,93.5239,VALID,0,VALID,24.0915,VALID,113,VALID,0.806641,
2010-06-04, 02:06:05,VALID,1001.61,VALID,0,VALID,93.5086,VALID,0,VALID,24.111,VALID,115,VALID,0.844922,
2010-06-04, 02:07:05,VALID,1001.56,VALID,0,VALID,93.4781,VALID,0,VALID,24.111,VALID,114,VALID,0.720312,
2010-06-04, 02:08:05,VALID,1001.56,VALID,0,VALID,93.4628,VALID,0,VALID,24.1305,VALID,118,VALID,1.18359,
2010-06-04, 02:09:05,VALID,1001.56,VALID,0,VALID,93.4552,VALID,0,VALID,24.111,VALID,116,VALID,1.14102,
2010-06-04, 02:10:05,VALID,1001.54,VALID,0,VALID,93.4476,VALID,0,VALID,24.111,VALID,120,VALID,0.830859,
2010-06-04, 02:11:05,VALID,1001.52,VALID,0,VALID,93.4094,VALID,0,VALID,24.1305,VALID,120,VALID,0.861719,
2010-06-04, 02:12:05,VALID,1001.5,VALID,0,VALID,93.4018,VALID,0,VALID,24.1305,VALID,115,VALID,0.646484,
2010-06-04, 02:13:05,VALID,1001.52,VALID,0,VALID,93.4094,VALID,0,VALID,24.1714,VALID,91,VALID,0.882422,
2010-06-04, 02:14:05,VALID,1001.49,VALID,0,VALID,93.4094,VALID,0,VALID,24.15,VALID,93,VALID,0.807813,
2010-06-04, 02:15:05,VALID,1001.51,VALID,0,VALID,93.4094,VALID,0,VALID,24.15,VALID,98,VALID,0.853125,
2010-06-04, 02:16:05,VALID,1001.46,VALID,0,VALID,93.4018,VALID,0,VALID,24.15,VALID,103,VALID,0.800391,
2010-06-04, 02:17:05,VALID,1001.45,VALID,0,VALID,93.3713,VALID,0,VALID,24.15,VALID,107,VALID,1.09453,
2010-06-04, 02:18:05,VALID,1001.44,VALID,0,VALID,93.3713,VALID,0,VALID,24.1482,VALID,107,VALID,0.636328,
2010-06-04, 02:19:05,VALID,1001.42,VALID,0,VALID,93.3789,VALID,0.112286,VALID,24.1482,VALID,107,VALID,0.516406,
2010-06-04, 02:20:05,VALID,1001.42,VALID,0,VALID,93.3408,VALID,0.112286,VALID,24.1482,VALID,110,VALID,0.325781,
2010-06-04, 02:21:05,VALID,1001.39,VALID,0,VALID,93.3179,VALID,0.112286,VALID,24.1287,VALID,116,VALID,0.258984,
2010-06-04, 02:22:05,VALID,1001.39,VALID,0,VALID,93.3026,VALID,0,VALID,24.1287,VALID,119,VALID,0.821094,
2010-06-04, 02:23:05,VALID,1001.38,VALID,0,VALID,93.3103,VALID,0,VALID,24.1287,VALID,120,VALID,0.719141,
2010-06-04, 02:24:05,VALID,1001.38,VALID,0,VALID,93.3026,VALID,0,VALID,24.1073,VALID,120,VALID,0.649609,
2010-06-04, 02:25:05,VALID,1001.37,VALID,0,VALID,93.2797,VALID,0.112286,VALID,24.1287,VALID,129,VALID,0.5625,
2010-06-04, 02:26:05,VALID,1001.35,VALID,0,VALID,93.2492,VALID,0.112286,VALID,24.1073,VALID,129,VALID,0.671094,
2010-06-04, 02:27:05,VALID,1001.34,VALID,0,VALID,93.2568,VALID,0.112286,VALID,24.1287,VALID,129,VALID,0.403125,
2010-06-04, 02:28:05,VALID,1001.3,VALID,0,VALID,93.2492,VALID,0,VALID,24.1092,VALID,129,VALID,0.239063,
2010-06-04, 02:29:05,VALID,1001.29,VALID,0,VALID,93.2492,VALID,0.112286,VALID,24.1092,VALID,129,VALID,0.444922,
2010-06-04, 02:30:05,VALID,1001.3,VALID,0,VALID,93.234,VALID,0.112286,VALID,24.0897,VALID,129,VALID,0.489453,
2010-06-04, 02:31:05,VALID,1001.28,VALID,0,VALID,93.2416,VALID,0,VALID,24.0897,VALID,129,VALID,0.476563,
2010-06-04, 02:32:05,VALID,1001.3,VALID,0,VALID,93.2263,VALID,0,VALID,24.0683,VALID,129,VALID,0.704687,
2010-06-04, 02:33:05,VALID,1001.28,VALID,0,VALID,93.1577,VALID,0,VALID,24.0525,VALID,135,VALID,0.908594,
2010-06-04, 02:34:05,VALID,1001.27,VALID,0,VALID,93.0585,VALID,0,VALID,24.0525,VALID,135,VALID,0.661719,
2010-06-04, 02:35:05,VALID,1001.26,VALID,0,VALID,92.9593,VALID,0,VALID,24.0329,VALID,155,VALID,0.673437,
2010-06-04, 02:36:05,VALID,1001.29,VALID,0,VALID,92.7685,VALID,0,VALID,24.0134,VALID,155,VALID,0.529297,
2010-06-04, 02:37:05,VALID,1001.25,VALID,0,VALID,92.6465,VALID,0,VALID,23.9921,VALID,155,VALID,0.436328,
2010-06-04, 02:38:05,VALID,1001.27,VALID,0,VALID,92.4939,VALID,0,VALID,23.9939,VALID,149,VALID,0.473047,
2010-06-04, 02:39:05,VALID,1001.27,VALID,0,VALID,92.5091,VALID,0,VALID,23.9939,VALID,105,VALID,0.685938,
2010-06-04, 02:40:05,VALID,1001.28,VALID,0,VALID,92.5015,VALID,0,VALID,23.9939,VALID,101,VALID,0.566016,
2010-06-04, 02:41:05,VALID,1001.3,VALID,0,VALID,92.532,VALID,0,VALID,23.9744,VALID,99,VALID,0.866797,
2010-06-04, 02:42:05,VALID,1001.29,VALID,0,VALID,92.6083,VALID,0,VALID,23.9744,VALID,80,VALID,0.866406,
2010-06-04, 02:43:05,VALID,1001.3,VALID,0,VALID,92.6923,VALID,0,VALID,23.9939,VALID,80,VALID,0.888281,
2010-06-04, 02:44:05,VALID,1001.29,VALID,0,VALID,92.7762,VALID,0,VALID,23.9939,VALID,78,VALID,0.778516,
2010-06-04, 02:45:05,VALID,1001.29,VALID,0,VALID,92.7914,VALID,0,VALID,23.9744,VALID,72,VALID,0.697656,
2010-06-04, 02:46:05,VALID,1001.25,VALID,0,VALID,92.7685,VALID,0,VALID,23.9549,VALID,64,VALID,0.557813,
2010-06-04, 02:47:05,VALID,1001.28,VALID,0,VALID,92.7151,VALID,0,VALID,23.9549,VALID,57,VALID,0.649219,
2010-06-04, 02:48:05,VALID,1001.28,VALID,0,VALID,92.6465,VALID,0,VALID,23.9354,VALID,52,VALID,0.464844,
2010-06-04, 02:49:05,VALID,1001.27,VALID,0,VALID,92.6388,VALID,0,VALID,23.8945,VALID,52,VALID,0.332812,
2010-06-04, 02:50:05,VALID,1001.24,VALID,0,VALID,92.6694,VALID,0,VALID,23.8963,VALID,52,VALID,0.291797,
2010-06-04, 02:51:05,VALID,1001.22,VALID,0,VALID,92.7228,VALID,0,VALID,23.8768,VALID,52,VALID,0.233203,
2010-06-04, 02:52:05,VALID,1001.23,VALID,0,VALID,92.7914,VALID,0,VALID,23.8555,VALID,53,VALID,0.439844,
2010-06-04, 02:53:05,VALID,1001.23,VALID,0,VALID,92.7838,VALID,0,VALID,23.836,VALID,60,VALID,0.555859,
2010-06-04, 02:54:05,VALID,1001.19,VALID,0,VALID,92.7838,VALID,0,VALID,23.8573,VALID,58,VALID,0.758984,
2010-06-04, 02:55:05,VALID,1001.22,VALID,0,VALID,92.7838,VALID,0,VALID,23.8573,VALID,62,VALID,0.390625,
2010-06-04, 02:56:05,VALID,1001.17,VALID,0,VALID,92.7609,VALID,0,VALID,23.8378,VALID,62,VALID,0.501562,
2010-06-04, 02:57:05,VALID,1001.19,VALID,0,VALID,92.7304,VALID,0,VALID,23.8378,VALID,62,VALID,0.60625,
2010-06-04, 02:58:05,VALID,1001.18,VALID,0,VALID,92.7457,VALID,0,VALID,23.8183,VALID,56,VALID,0.537109,
2010-06-04, 02:59:05,VALID,1001.15,VALID,0,VALID,92.6617,VALID,0,VALID,23.7775,VALID,56,VALID,0.516406,
2010-06-04, 03:00:05,VALID,1001.17,VALID,0,VALID,92.6465,VALID,0,VALID,23.7597,VALID,56,VALID,0.444922,
2010-06-04, 03:01:05,VALID,1001.14,VALID,0,VALID,92.6541,VALID,0,VALID,23.7597,VALID,55,VALID,0.413672,
2010-06-04, 03:02:05,VALID,1001.15,VALID,0,VALID,92.6312,VALID,0,VALID,23.7402,VALID,55,VALID,0.553516,
2010-06-04, 03:03:05,VALID,1001.16,VALID,0,VALID,92.6083,VALID,0,VALID,23.7012,VALID,55,VALID,0.742188,
2010-06-04, 03:04:05,VALID,1001.17,VALID,0,VALID,92.5778,VALID,0,VALID,23.7012,VALID,55,VALID,0.833203,
2010-06-04, 03:05:05,VALID,1001.16,VALID,0,VALID,92.5473,VALID,0,VALID,23.6817,VALID,55,VALID,0.814844,
2010-06-04, 03:06:05,VALID,1001.14,VALID,0,VALID,92.5549,VALID,0,VALID,23.7207,VALID,55,VALID,0.607422,
2010-06-04, 03:07:05,VALID,1001.17,VALID,0,VALID,92.5778,VALID,0,VALID,23.7207,VALID,54,VALID,0.695313,
2010-06-04, 03:08:05,VALID,1001.18,VALID,0,VALID,92.6388,VALID,0,VALID,23.7402,VALID,45,VALID,0.958594,
2010-06-04, 03:09:05,VALID,1001.15,VALID,0,VALID,92.5626,VALID,0,VALID,23.7207,VALID,45,VALID,1.01094,
2010-06-04, 03:10:05,VALID,1001.19,VALID,0,VALID,92.41,VALID,0,VALID,23.6622,VALID,44,VALID,1.12539,
2010-06-04, 03:11:05,VALID,1001.16,VALID,0,VALID,92.4557,VALID,0,VALID,23.6622,VALID,39,VALID,1.44609,
2010-06-04, 03:12:05,VALID,1001.17,VALID,0,VALID,92.5626,VALID,0,VALID,23.6622,VALID,43,VALID,1.50469,
2010-06-04, 03:13:05,VALID,1001.22,VALID,0,VALID,92.6312,VALID,0,VALID,23.6817,VALID,53,VALID,1.49688,
2010-06-04, 03:14:05,VALID,1001.16,VALID,0,VALID,92.7151,VALID,0,VALID,23.6817,VALID,58,VALID,1.41758,
2010-06-04, 03:15:05,VALID,1001.22,VALID,0,VALID,92.7533,VALID,0,VALID,23.7012,VALID,60,VALID,1.37266,
2010-06-04, 03:16:05,VALID,1001.21,VALID,0,VALID,92.7838,VALID,0,VALID,23.7012,VALID,59,VALID,1.10664,
2010-06-04, 03:17:05,VALID,1001.2,VALID,0,VALID,92.8448,VALID,0,VALID,23.7012,VALID,57,VALID,0.847266,
2010-06-04, 03:18:05,VALID,1001.21,VALID,0,VALID,92.9135,VALID,0,VALID,23.7207,VALID,41,VALID,0.875,
2010-06-04, 03:19:05,VALID,1001.2,VALID,0,VALID,92.9898,VALID,0,VALID,23.7207,VALID,38,VALID,0.968359,
2010-06-04, 03:20:05,VALID,1001.19,VALID,0,VALID,93.0127,VALID,0,VALID,23.7207,VALID,25,VALID,0.955859,
2010-06-04, 03:21:05,VALID,1001.19,VALID,0,VALID,93.0508,VALID,0,VALID,23.7207,VALID,25,VALID,0.886719,
2010-06-04, 03:22:05,VALID,1001.18,VALID,0,VALID,93.0966,VALID,0,VALID,23.7012,VALID,25,VALID,1.23672,
2010-06-04, 03:23:05,VALID,1001.19,VALID,0,VALID,93.1271,VALID,0,VALID,23.7012,VALID,26,VALID,1.15313,
2010-06-04, 03:24:05,VALID,1001.18,VALID,0,VALID,93.1195,VALID,0,VALID,23.6817,VALID,20,VALID,1.3375,
2010-06-04, 03:25:05,VALID,1001.18,VALID,0,VALID,93.0661,VALID,0,VALID,23.6622,VALID,19,VALID,1.4043,
2010-06-04, 03:26:05,VALID,1001.17,VALID,0,VALID,93.0432,VALID,0,VALID,23.6427,VALID,17,VALID,1.5793,
2010-06-04, 03:27:05,VALID,1001.16,VALID,0,VALID,93.028,VALID,0,VALID,23.6409,VALID,18,VALID,1.49844,
2010-06-04, 03:28:05,VALID,1001.14,VALID,0,VALID,93.0508,VALID,0,VALID,23.6427,VALID,21,VALID,1.54102,
2010-06-04, 03:29:05,VALID,1001.14,VALID,0,VALID,93.0356,VALID,0,VALID,23.6622,VALID,23,VALID,1.14805,
2010-06-04, 03:30:05,VALID,1001.09,VALID,0,VALID,93.0432,VALID,0,VALID,23.6622,VALID,32,VALID,1.56953,
2010-06-04, 03:31:05,VALID,1001.1,VALID,0,VALID,93.0127,VALID,0,VALID,23.6817,VALID,33,VALID,1.23164,
2010-06-04, 03:32:05,VALID,1001.07,VALID,0,VALID,92.9822,VALID,0,VALID,23.7012,VALID,29,VALID,1.38437,
2010-06-04, 03:33:05,VALID,1001.05,VALID,0,VALID,92.9745,VALID,0,VALID,23.7012,VALID,28,VALID,1.1,
2010-06-04, 03:34:05,VALID,1001.04,VALID,0,VALID,92.9822,VALID,0,VALID,23.7207,VALID,27,VALID,1.31094,
2010-06-04, 03:35:05,VALID,1001.02,VALID,0,VALID,92.9974,VALID,0,VALID,23.7207,VALID,27,VALID,1.10938,
2010-06-04, 03:36:05,VALID,1000.99,VALID,0,VALID,92.9974,VALID,0,VALID,23.742,VALID,30,VALID,1.16211,
2010-06-04, 03:37:05,VALID,1000.97,VALID,0,VALID,93.028,VALID,0,VALID,23.7207,VALID,26,VALID,1.3043,
2010-06-04, 03:38:05,VALID,1000.97,VALID,0,VALID,93.0508,VALID,0,VALID,23.7402,VALID,29,VALID,0.804297,
2010-06-04, 03:39:05,VALID,1000.96,VALID,0,VALID,93.0585,VALID,0,VALID,23.7402,VALID,27,VALID,0.926172,
2010-06-04, 03:40:05,VALID,1000.94,VALID,0,VALID,93.0737,VALID,0,VALID,23.7402,VALID,43,VALID,1.24727,
2010-06-04, 03:41:05,VALID,1000.93,VALID,0,VALID,93.1119,VALID,0,VALID,23.7402,VALID,45,VALID,1.43398,
2010-06-04, 03:42:05,VALID,1000.94,VALID,0,VALID,93.1577,VALID,0,VALID,23.7402,VALID,49,VALID,1.20039,
2010-06-04, 03:43:05,VALID,1000.97,VALID,0,VALID,93.1653,VALID,0,VALID,23.7402,VALID,57,VALID,0.899219,
2010-06-04, 03:44:05,VALID,1000.98,VALID,0,VALID,93.1729,VALID,0,VALID,23.7616,VALID,75,VALID,1.15586,
2010-06-04, 03:45:05,VALID,1000.98,VALID,0,VALID,93.2111,VALID,0,VALID,23.7597,VALID,105,VALID,0.902734,
2010-06-04, 03:46:05,VALID,1001.03,VALID,0,VALID,93.1729,VALID,0,VALID,23.7402,VALID,121,VALID,1.00664,